Location: Cedar Falls
(42.5280°N, 92.4450°W)
Time: 07:23:37
(UTC-05:00)

NOSS 3-1 (C) - Visible Passes

Search period start: 04 September 2015 00:00
Search period end: 14 September 2015 00:00
Orbit: 870 x 1339 km, 63.4° (Epoch: 01 September)

Date Brightness Start Highest point End Pass type
(mag) Time Alt. Az. Time Alt. Az. Time Alt. Az.
04 Sep 6.4 00:15:16 10° NW 00:18:39 14° N 00:22:06 10° NNE visible
04 Sep 6.4 02:08:39 10° NNW 02:12:45 16° NNE 02:17:14 10° NE visible
04 Sep 5.2 03:59:04 10° NNW 04:05:54 40° NE 04:13:23 10° ESE visible
04 Sep 4.1 05:49:49 10° NW 05:57:17 60° WSW 06:05:17 10° SSE visible
04 Sep 4.5 21:33:53 10° WSW 21:39:41 46° NW 21:46:06 10° NNE visible
04 Sep 6.2 23:28:31 10° WNW 23:32:32 16° NNW 23:36:41 10° NNE visible
05 Sep 6.4 01:23:14 10° NNW 01:26:36 14° N 01:30:13 10° NE visible
05 Sep 5.7 03:13:58 10° NNW 03:20:10 29° NE 03:26:59 10° E visible
05 Sep 4.0 05:04:27 10° NW 05:12:02 87° SW 05:20:16 10° SSE visible
05 Sep 3.8 20:48:18 10° SW 20:54:16 71° NW 21:00:54 10° NNE visible
05 Sep 5.9 22:41:51 10° WNW 22:46:32 21° NNW 22:51:27 10° NNE visible
06 Sep 6.4 00:37:25 10° NNW 00:40:25 13° N 00:43:32 10° NNE visible
06 Sep 6.0 02:28:52 10° NNW 02:34:18 22° NNE 02:40:15 10° ENE visible
06 Sep 4.3 04:19:13 10° NNW 04:26:40 67° NE 04:34:48 10° SE visible
06 Sep 4.7 06:10:45 10° NW 06:17:24 31° WSW 06:24:15 10° S visible
06 Sep 3.4 20:03:06 10° SSW 20:09:01 75° ESE 20:15:34 10° NE visible
06 Sep 5.5 21:55:25 10° W 22:00:39 27° NNW 22:06:17 10° NNE visible
06 Sep 6.4 23:51:05 10° NW 23:54:13 13° N 23:57:26 10° NNE visible
07 Sep 6.2 01:43:43 10° NNW 01:48:17 18° NNE 01:53:18 10° ENE visible
07 Sep 4.9 03:34:04 10° NNW 03:41:10 47° NE 03:48:57 10° ESE visible
07 Sep 4.2 05:25:01 10° NW 05:32:18 48° WSW 05:40:02 10° S visible
07 Sep 5.0 21:09:17 10° WSW 21:14:57 38° NW 21:21:08 10° NNE visible
07 Sep 6.3 23:04:25 10° NW 23:08:04 15° NNW 23:11:49 10° NNE visible
08 Sep 6.3 00:58:26 10° NNW 01:02:11 15° NNE 01:06:15 10° NE visible
08 Sep 5.3 02:48:58 10° NNW 02:55:32 34° NE 03:02:44 10° ESE visible
08 Sep 3.9 04:39:34 10° NW 04:47:07 71° WSW 04:55:16 10° SSE visible
08 Sep 4.3 20:23:30 10° SW 20:29:25 56° NW 20:35:58 10° NNE visible
08 Sep 6.1 22:17:41 10° WNW 22:22:00 18° NNW 22:26:30 10° NNE visible
09 Sep 6.4 00:12:52 10° NNW 00:16:01 13° N 00:19:22 10° NNE visible
09 Sep 5.7 02:03:52 10° NNW 02:09:44 26° NNE 02:16:10 10° E visible
09 Sep 4.0 03:54:16 10° NW 04:01:50 81° NE 04:10:03 10° SE visible
09 Sep 4.9 05:46:16 10° WNW 05:52:22 25° WSW 05:58:28 10° SSW visible
09 Sep 5.8 21:31:07 10° W 21:36:03 23° NNW 21:41:19 10° NNE visible
09 Sep 6.4 23:26:50 10° NNW 23:29:49 13° N 23:32:55 10° NNE visible
10 Sep 6.0 01:18:45 10° NNW 01:23:48 20° NNE 01:29:20 10° ENE visible
10 Sep 4.5 03:09:05 10° NNW 03:16:24 57° NE 03:24:25 10° SE visible
10 Sep 4.4 05:00:19 10° NW 05:07:19 38° WSW 05:14:38 10° S visible
10 Sep 5.3 20:44:49 10° W 20:50:15 31° NW 20:56:10 10° NNE visible
10 Sep 6.3 22:40:19 10° NW 22:43:38 14° N 22:47:02 10° NNE visible
11 Sep 6.2 00:33:34 10° NNW 00:37:45 16° NNE 00:42:19 10° NE visible
11 Sep 5.0 02:23:57 10° NNW 02:30:50 41° NE 02:38:23 10° ESE visible
11 Sep 4.0 04:14:44 10° NW 04:22:11 58° WSW 04:30:09 10° SSE visible
11 Sep 5.5 06:10:26 10° W 06:12:11 10° WSW 06:13:16 10° WSW visible
11 Sep 4.7 19:58:50 10° WSW 20:04:37 45° NW 20:11:01 10° NNE visible
11 Sep 6.1 21:53:34 10° NW 21:57:31 16° NNW 22:01:35 10° NNE visible
11 Sep 6.3 23:48:10 10° NNW 23:51:36 14° N 23:55:17 10° NE visible
12 Sep 5.4 01:38:52 10° NNW 01:45:08 30° NE 01:50:45 14° E visible
12 Sep 3.8 03:29:22 10° NW 03:36:57 84° SW 03:45:10 10° SSE visible
12 Sep 5.4 05:22:01 10° WNW 05:30:23 15° SW 05:32:22 10° SSW visible
12 Sep 5.9 21:06:53 10° WNW 21:11:30 20° NNW 21:16:21 10° NNE visible
12 Sep 6.3 23:02:24 10° NNW 23:05:25 13° N 23:08:34 10° NNE visible
13 Sep 5.7 00:53:46 10° NNW 00:59:16 23° NNE 01:02:35 18° ENE visible
13 Sep 4.5 02:44:07 10° NNW 02:49:48 54° N 02:49:48 54° N visible
13 Sep 5.6 04:35:43 10° NW 04:51:26 - S 04:37:02 15° WNW visible
13 Sep 5.6 20:20:25 10° W 20:25:37 26° NNW 20:31:11 10° NNE visible
13 Sep 6.2 22:16:08 10° NNW 22:19:13 13° N 22:22:24 10° NNE visible
